Regional Weather Roundup
Issued by NWS

Home | Current Version | Previous Version | Graphics & Text | Print | Product List | Glossary On
Versions: 1 2 3 4 5 6 7 8 9 10 11 12 13 14 15 16 17 18 19 20 21 22 23 24 25 26 27 28 29 30 31 32 33 34 35 36 37 38 39 40 41 42 43 44 45 46 47 48 49 50
000
ASUS45 KCYS 190410
RWRWY

WYOMING REGIONAL WEATHER ROUNDUP
NATIONAL WEATHER SERVICE CHEYENNE WY
1000 PM MDT THU SEP 18 2014

NOTE:  "FAIR" INDICATES FEW OR NO CLOUDS BELOW 12,000 FEET
WITH NO SIGNIFICANT WEATHER AND/OR OBSTRUCTIONS TO VISIBILITY.

WYZ001-190500-
YELLOWSTONE NATIONAL PARK

CITY           SKY/WX    TMP DP  RH WIND       PRES   REMARKS
LK YELLOWSTONE   N/A     50  48  93 CALM      30.13F
W YELLOWSTONE  NOT AVBL

$$
WYZ002>013-054>058-071-098>099-190500-
NORTHERN WYOMING

CITY           SKY/WX    TMP DP  RH WIND       PRES   REMARKS
JACKSON        CLOUDY    54  52  94 W8        30.08F
CODY             N/A    N/A N/A N/A MISG        N/A
GREYBULL       CLOUDY    70  52  52 NW13      29.83R
WORLAND        CLOUDY    66  52  60 SW6       29.88R
SHERIDAN       CLOUDY    63  53  70 W9        29.91R
BUFFALO        CLOUDY    64  50  60 NW14      29.93F
GILLETTE       CLOUDY    69  49  48 N24G31    29.87R
HULETT         FAIR      68  52  56 MISG      29.84
NEWCASTLE      FAIR      75  39  27 SE13      29.79

$$
WYZ014>020-022>026-101>103-190500-
CENTRAL WYOMING

CITY           SKY/WX    TMP DP  RH WIND       PRES   REMARKS
BIG PINEY      CLOUDY    59  45  59 N16G23    30.09R
PINEDALE       CLOUDY    57  43  58 W21       30.10R
DUBOIS         LGT RAIN  52  46  82 NW6       30.12F
LANDER         CLOUDY    71  45  39 NW13G25   29.90R
RIVERTON       CLOUDY    71  42  35 NW28G37   29.91R
CASPER         PTCLDY    64  31  28 NW14      29.88R
DOUGLAS        PTCLDY    66  39  37 CALM      29.86S

$$
WYZ021-027>030-104>119-190500-
SOUTHERN WYOMING

CITY           SKY/WX    TMP DP  RH WIND       PRES   REMARKS
EVANSTON       CLOUDY    61  44  53 N24G36    30.08R
KEMMERER       MOCLDY    59  43  55 NW20G26   30.07R
FORT BRIDGER   FAIR      69  40  35 SW8       30.06S
ROCK SPRINGS   PTCLDY    68  38  33 SW16      30.00R
DIXON          FAIR      57  39  50 NE5       30.05R
RAWLINS        CLEAR     61  30  31 W7        30.03S
SARATOGA       FAIR      54  36  50 S8        30.06S
LARAMIE        CLEAR     63  33  32 S10       30.06S
CHEYENNE       CLEAR     68  49  50 SE15      30.00F
TORRINGTON     CLEAR     64  51  62 E12       29.85R
PINE BLUFFS    FAIR      68  54  60 SE17      29.95S

$$



USA.gov is the U.S. government's official web portal to all federal, state and local government web resources and services.